Total_Precipitation_Accumulation
0.00 0.00 0.00 0.00 0.00 0.00 0.00 0.00 0.00 0.00 0.00 0.00 0.00 0.00 0.00 0.00 0.00 0.00 0.01 0.01 0.03 0.04 0.06 0.11 0.32 0.50 0.45
0.00 0.00 0.00 0.00 0.00 0.00 0.00 0.00 0.00 0.00 0.00 0.00 0.00 0.00 0.00 0.01 0.01 0.01 0.02 0.02 0.03 0.03 0.05 0.13 0.41 0.44 0.36
0.00 0.00 0.00 0.00 0.00 0.00 0.00 0.00 0.00 0.00 0.00 0.00 0.00 0.00 0.00 0.01 0.02 0.03 0.03 0.04 0.04 0.04 0.02 0.13 0.32 0.34 0.51
0.00 0.00 0.00 0.00 0.00 0.00 0.00 0.00 0.00 0.00 0.00 0.00 0.01 0.00 0.00 0.01 0.03 0.05 0.03 0.02 0.01 0.03 0.10 0.15 0.37 0.57 0.59
0.00 0.00 0.00 0.00 0.00 0.00 0.00 0.00 0.00 0.00 0.00 0.00 0.00 0.00 0.01 0.03 0.04 0.04 0.03 0.07 0.09 0.13 0.21 0.48 0.69 0.73 0.54
0.00 0.00 0.00 0.00 0.00 0.00 0.01 0.01 0.01 0.00 0.00 0.00 0.00 0.01 0.02 0.04 0.04 0.05 0.19 0.14 0.17 0.23 0.31 0.34 0.41 0.41 0.29
0.00 0.00 0.00 0.00 0.00 0.00 0.02 0.03 0.02 0.00 0.02 0.02 0.00 0.01 0.08 0.15 0.19 0.30 0.28 0.16 0.13 0.20 0.21 0.19 0.24 0.18 0.07
0.00 0.00 0.00 0.00 0.00 0.02 0.03 0.01 0.00 0.00 0.04 0.07 0.03 0.08 0.26 0.26 0.31 0.34 0.24 0.07 0.07 0.13 0.14 0.14 0.10 0.03 0.01
0.00 0.00 0.00 0.01 0.02 0.03 0.02 0.04 0.03 0.01 0.04 0.13 0.10 0.18 0.23 0.21 0.23 0.26 0.25 0.10 0.11 0.14 0.13 0.08 0.03 0.01 0.00
0.00 0.00 0.00 0.00 0.01 0.02 0.06 0.12 0.07 0.08 0.05 0.17 0.11 0.19 0.17 0.16 0.18 0.20 0.16 0.18 0.11 0.10 0.06 0.03 0.01 0.00 0.00
0.00 0.00 0.00 0.00 0.00 0.01 0.04 0.12 0.13 0.08 0.08 0.22 0.14 0.19 0.19 0.15 0.14 0.15 0.15 0.14 0.09 0.06 0.03 0.01 0.00 0.00 0.00
0.00 0.00 0.00 0.00 0.00 0.01 0.02 0.07 0.09 0.09 0.07 0.20 0.20 0.20 0.19 0.12 0.12 0.14 0.18 0.13 0.07 0.04 0.02 0.02 0.00 0.00 0.00
0.00 0.00 0.00 0.00 0.01 0.01 0.01 0.02 0.03 0.06 0.12 0.17 0.22 0.20 0.17 0.11 0.07 0.09 0.11 0.17 0.10 0.03 0.01 0.00 0.00 0.00 0.00
0.00 0.00 0.00 0.00 0.01 0.04 0.03 0.03 0.04 0.05 0.09 0.11 0.13 0.13 0.10 0.07 0.04 0.04 0.05 0.06 0.09 0.05 0.02 0.01 0.00 0.00 0.00
0.01 0.01 0.01 0.02 0.02 0.03 0.03 0.04 0.05 0.05 0.03 0.03 0.06 0.06 0.05 0.04 0.04 0.04 0.04 0.05 0.05 0.05 0.02 0.02 0.00 0.00 0.00
0.02 0.02 0.04 0.05 0.03 0.02 0.04 0.04 0.05 0.03 0.02 0.03 0.05 0.05 0.04 0.04 0.03 0.04 0.05 0.04 0.06 0.06 0.03 0.01 0.01 0.00 0.00
0.04 0.06 0.07 0.05 0.04 0.03 0.04 0.04 0.03 0.02 0.01 0.02 0.03 0.04 0.04 0.03 0.04 0.05 0.04 0.05 0.04 0.06 0.05 0.01 0.00 0.00 0.00